Location: Heidgraben
(53.7081°N, 9.6576°E)
Time: 00:11:19
(UTC+00:00)

Cosmos 2333 Rocket - Pass Details

Date: 26 October 2020
Orbit: 841 x 861 km, 70.8° (Epoch: 28 November)

Event Time Altitude Azimuth Distance (km) Brightness Sun altitude
Exits shadow 02:50:54 12° 340° (NNW) 2,353 4.5 -29.7°
Maximum altitude 02:52:59 14° 3° (N) 2,207 4.6 -29.4°
Drops below altitude 10° 02:55:54 10° 34° (NE) 2,482 5.3 -29.0°
Sets 02:59:42 0° 59° (ENE) 3,412 6.5 -28.5°
